Weather History for Chievres, Belgium

Change the Weather History Date:

Sunday, December 15, 2013

  Actual Average Record
Temperature  
Mean Temperature 44 °F -  
Max Temperature 47 °F 40 °F 51 °F (1998)
Min Temperature 41 °F 35 °F 23 °F (2010)
Degree Days  
Heating Degree Days 21    
Moisture  
Dew Point 38 °F    
Average Humidity 76    
Maximum Humidity 87    
Minimum Humidity 58    
Precipitation  
Precipitation 0.00 in - - ()
Sea Level Pressure  
Sea Level Pressure 30.30 in    
Wind  
Wind Speed 16 mph ()    
Max Wind Speed 24 mph    
Max Gust Speed 33 mph    
Visibility 7.9 miles    
Events      
Averages and records for this station are not official NWS values.
T = Trace of Precipitation, MM = Missing Value Source: Averaged Metar Reports

Daily Weather History Graph

Daily Weather History Graph

Search for Another Location

Airport:

Trip Planner

Search our weather history database for the weather conditions in past years. The results will help you decide how hot, cold, wet, or windy it might be!

Date:

Astronomy

Dec. 15, 2013 Rise Set
Actual Time 8:39 AM CET 4:40 PM CET
Civil Twilight 8:00 AM CET 5:19 PM CET
Nautical Twilight 7:18 AM CET 6:01 PM CET
Astronomical Twilight 6:38 AM CET 6:41 PM CET
Moon 3:41 PM CET (12/15) 6:32 AM CET (12/15)
Length of Visible Light 9h 19m
Length of Day
8h 00m
Waxing Gibbous, 97% of the Moon is Illuminated
Dec 15
Waxing Gibbous
Dec 17
Full
Dec 25
Last Quarter
Jan 1
New
Jan 8
First Quarter

Hourly Weather History & Observations

Time (CET) Temp. Windchill Dew Point Humidity Pressure Visibility Wind Dir Wind Speed Gust Speed Precip Events Conditions
12:25 AM 42.8 °F 34.8 °F 37.4 °F 81% 30.30 in 6.2 mi South 17.3 mph - N/A   Mostly Cloudy
1:00 AM 44 °F - 36 °F 64% 30.33 in 12 mi SSW 17.9 mph - -   Partly Cloudy
1:25 AM 44.6 °F 36.4 °F 35.6 °F 71% 30.30 in 6.2 mi SSW 20.7 mph 33.4 mph N/A   Mostly Cloudy
2:25 AM 44.6 °F 35.7 °F 37.4 °F 76% 30.30 in 6.2 mi SSW 24.2 mph - N/A   Mostly Cloudy
3:25 AM 44.6 °F 35.7 °F 35.6 °F 71% 30.30 in 6.2 mi SSW 24.2 mph - N/A   Mostly Cloudy
4:00 AM 45 °F - 35 °F 58% 30.30 in 17 mi SSW 22.4 mph - -   Scattered Clouds
4:25 AM 44.6 °F 35.9 °F 35.6 °F 71% 30.27 in 6.2 mi SSW 23.0 mph - N/A   Mostly Cloudy
5:25 AM 42.8 °F 33.8 °F 37.4 °F 81% 30.27 in 6.2 mi SW 21.9 mph - N/A   Mostly Cloudy
5:40 AM 42.8 °F 34.0 °F 37.4 °F 81% 30.30 in 6.2 mi SSW 20.7 mph - N/A   Mostly Cloudy
6:03 AM 42.8 °F 34.0 °F 37.4 °F 81% 30.30 in 6.2 mi SSW 20.7 mph - N/A   Mostly Cloudy
6:09 AM 42.8 °F 34.0 °F 37.4 °F 81% 30.30 in 3.1 mi SSW 20.7 mph - N/A   Mostly Cloudy
6:25 AM 42.8 °F 34.3 °F 39.2 °F 87% 30.30 in 4.3 mi SSW 19.6 mph - N/A   Mostly Cloudy
7:00 AM 43 °F - 38 °F 76% 30.33 in 19 mi SSW 20.1 mph - -   Clear
7:25 AM 42.8 °F 34.8 °F 37.4 °F 81% 30.30 in 6.2 mi SSW 17.3 mph - N/A   Mostly Cloudy
8:25 AM 42.8 °F 35.1 °F 39.2 °F 87% 30.33 in 6.2 mi SSW 16.1 mph - N/A   Mostly Cloudy
9:25 AM 42.8 °F 35.1 °F 37.4 °F 81% 30.36 in 6.2 mi SSW 16.1 mph - N/A   Mostly Cloudy
10:00 AM 44 °F - 38 °F 74% 30.38 in 17 mi SSW 13.4 mph - -   Clear
10:25 AM 44.6 °F 38.1 °F 39.2 °F 81% 30.36 in 6.2 mi SSW 13.8 mph - N/A   Mostly Cloudy
10:55 AM 44.6 °F 37.8 °F 39.2 °F 81% 30.36 in 6.2 mi SSW 15.0 mph - N/A   Mostly Cloudy
11:25 AM 44.6 °F 37.4 °F 39.2 °F 81% 30.36 in 6.2 mi SSW 16.1 mph - N/A   Mostly Cloudy
12:25 PM 44.6 °F 37.8 °F 41.0 °F 87% 30.33 in 6.2 mi South 15.0 mph - N/A   Mostly Cloudy
1:00 PM 46 °F - 42 °F 80% 30.35 in 16 mi South 11.2 mph - -   Clear
1:25 PM 46.4 °F 40.4 °F 39.2 °F 76% 30.33 in 6.2 mi SSW 13.8 mph - N/A   Mostly Cloudy
2:16 PM 46.4 °F 40.4 °F 39.2 °F 76% 30.30 in 6.2 mi South 13.8 mph - N/A   Mostly Cloudy
2:19 PM 46.4 °F 40.1 °F 39.2 °F 76% 30.30 in 6.2 mi South 15.0 mph - N/A   Overcast
2:25 PM 46.4 °F 40.4 °F 39.2 °F 76% 30.30 in 6.2 mi SSW 13.8 mph - N/A   Mostly Cloudy
3:25 PM 46.4 °F 40.7 °F 39.2 °F 76% 30.30 in 6.2 mi South 12.7 mph - N/A   Mostly Cloudy
3:40 PM 46.4 °F 41.1 °F 39.2 °F 76% 30.30 in 6.2 mi South 11.5 mph - N/A   Mostly Cloudy
4:00 PM 46 °F - 40 °F 72% 30.30 in 18 mi South 11.2 mph - -   Scattered Clouds
4:05 PM 44.6 °F 39.2 °F 39.2 °F 81% 30.27 in 6.2 mi South 10.4 mph - N/A   Partly Cloudy
4:25 PM 46.4 °F 40.4 °F 39.2 °F 76% 30.27 in 6.2 mi South 13.8 mph - N/A   Scattered Clouds
5:25 PM 46.4 °F 39.5 °F 37.4 °F 71% 30.27 in 6.2 mi South 17.3 mph - N/A   Mostly Cloudy
6:25 PM 44.6 °F 38.4 °F 37.4 °F 76% 30.27 in 6.2 mi South 12.7 mph - N/A   Scattered Clouds
7:00 PM 44 °F - 36 °F 66% 30.30 in 19 mi South 13.4 mph - -   Partly Cloudy
7:25 PM 42.8 °F 36.2 °F 35.6 °F 76% 30.27 in 6.2 mi South 12.7 mph - N/A   Unknown
8:25 PM 42.8 °F 36.2 °F 35.6 °F 76% 30.30 in 6.2 mi South 12.7 mph - N/A   Unknown
9:24 PM 44.6 °F 37.2 °F 35.6 °F 71% 30.27 in 6.2 mi SSW 17.3 mph - N/A   Scattered Clouds
9:25 PM 44.6 °F 37.2 °F 35.6 °F 71% 30.27 in 6.2 mi SSW 17.3 mph - N/A   Scattered Clouds
10:00 PM 45 °F - 37 °F 66% 30.30 in 22 mi South 15.7 mph - -   Partly Cloudy
10:25 PM 46.4 °F 40.1 °F 39.2 °F 76% 30.27 in 6.2 mi SSW 15.0 mph - N/A   Overcast
11:25 PM 46.4 °F 40.1 °F 39.2 °F 76% 30.27 in 6.2 mi SSW 15.0 mph - N/A   Overcast